Location: Marne
(34.0056°N, 117.9064°W)
Time: 05:10:48
(UTC+00:00)

Nadezhda 3 Rocket - Pass Details

Date: 18 January 2020
Orbit: 957 x 999 km, 82.9° (Epoch: 17 February)

Event Time Altitude Azimuth Distance (km) Brightness Sun altitude
Rises 02:12:13 0° 354° (N) 3,680 6.9 -13.5°
Reaches altitude 10° 02:14:43 10° 355° (N) 2,735 6.2 -14.0°
Maximum altitude 02:21:01 87° 83° (E) 992 4.0 -15.2°
Drops below altitude 10° 02:27:20 10° 175° (S) 2,746 6.5 -16.5°
Sets 02:29:51 0° 175° (S) 3,696 7.1 -17.0°
